Location: Ocean City
(38.3360°N, 75.0850°W)
Time: 01:39:58
(UTC-05:00)

LightSail 2 - Visible Passes

Search period start: 14 November 2019 00:00
Search period end: 24 November 2019 00:00
Orbit: 701 x 726 km, 24.0° (Epoch: 13 November)

Date Brightness Start Highest point End Pass type
(mag) Time Alt. Az. Time Alt. Az. Time Alt. Az.
14 Nov 7.4 04:05:00 15° SSE 04:05:00 15° SSE 04:07:17 10° SE visible
14 Nov 7.4 05:46:15 10° SW 05:48:55 14° S 05:51:36 10° SSE visible
15 Nov 7.2 04:49:43 14° SSW 04:51:14 15° S 04:54:13 10° SSE visible
16 Nov 7.6 03:55:27 13° SSE 03:55:27 13° SSE 03:56:39 10° SE visible
16 Nov 7.5 05:36:47 10° SSW 05:38:16 11° SSW 05:39:45 10° S visible
17 Nov 7.3 04:40:08 13° SSW 04:40:34 13° S 04:42:54 10° SSE visible
